Le nostre stazioni meteo in Italia

Pubblicità
Il mio iltempo24.it
Passo Rolle, Italia (16021): Temperatura & dewpoint: 03.07.2020 07:00:00 - 09.07.2020 07:00:00 (CEST)Passo Rolle, Italia (16021): velocità del vento: 03.07.2020 07:00:00 - 09.07.2020 07:00:00 (CEST)Passo Rolle, Italia (16021): direzione del vento: 03.07.2020 07:00:00 - 09.07.2020 07:00:00 (CEST)Passo Rolle, Italia (16021): visibility: 03.07.2020 07:00:00 - 09.07.2020 07:00:00 (CEST)
Data & Tempo tt [°C] td [°C] ff [km/h] ff [kn] dd vv [km]
09.07.2020 07:00:00 - - - - - -
09.07.2020 06:00:00 - - - - - -
09.07.2020 05:00:00 11,6 7,3 5 3 NNO 30
09.07.2020 04:00:00 - - - - - -
09.07.2020 03:00:00 - - - - - -
09.07.2020 02:00:00 11,0 8,6 8 4 NNO 10
09.07.2020 01:00:00 - - - - - -
09.07.2020 00:00:00 - - - - - -
08.07.2020 23:00:00 11,0 8,6 8 4 ONO 10
08.07.2020 22:00:00 - - - - - -
08.07.2020 21:00:00 - - - - - -
08.07.2020 20:00:00 12,8 9,4 8 4 ESE 30
08.07.2020 19:00:00 15,0 9,0 13 7 ESE 10
08.07.2020 18:00:00 15,0 10,0 24 13 SE -
08.07.2020 17:00:00 15,4 8,9 26 14 SE 30
08.07.2020 16:00:00 16,0 9,0 22 12 ESE 10
08.07.2020 15:00:00 15,0 9,0 24 13 SE 10
08.07.2020 14:00:00 15,2 8,9 24 13 SE 50
08.07.2020 13:00:00 15,0 9,0 21 11 SE 10
08.07.2020 12:00:00 14,0 9,0 18 10 SE 10
08.07.2020 11:00:00 14,0 8,0 11 6 SE 50
08.07.2020 10:00:00 11,0 5,0 5 3 OSO 10
08.07.2020 09:00:00 10,0 6,0 9 5 N 10
08.07.2020 08:00:00 9,0 6,6 11 6 N 30
08.07.2020 07:00:00 8,0 6,0 9 5 NNO 10
08.07.2020 06:00:00 8,0 6,0 5 3 NO 10
08.07.2020 05:00:00 8,0 6,1 5 3 NO 15
08.07.2020 04:00:00 - - - - - -
08.07.2020 03:00:00 - - - - - -
08.07.2020 02:00:00 7,6 6,5 9 5 NO 15
08.07.2020 01:00:00 - - - - - -
08.07.2020 00:00:00 - - - - - -
07.07.2020 23:00:00 8,0 7,2 9 5 ESE 12
07.07.2020 22:00:00 - - - - - -
07.07.2020 21:00:00 - - - - - -
07.07.2020 20:00:00 12,2 9,2 22 12 SE 12
07.07.2020 19:00:00 13,0 9,0 28 15 SE 10
07.07.2020 18:00:00 13,0 9,0 29 16 SE 10
07.07.2020 17:00:00 13,6 7,2 26 14 SE 30
07.07.2020 16:00:00 14,0 5,0 22 12 SE 10
07.07.2020 15:00:00 15,0 -1,0 4 2 - 10
07.07.2020 14:00:00 13,8 -0,3 18 10 SE 50
07.07.2020 13:00:00 13,0 -6,0 9 5 O 10
07.07.2020 12:00:00 12,0 -7,0 8 4 O 10
07.07.2020 11:00:00 10,2 -5,3 9 5 O 50
07.07.2020 10:00:00 9,0 -6,0 9 5 ONO 10
07.07.2020 09:00:00 8,0 -3,0 9 5 NO 10
07.07.2020 08:00:00 7,0 -2,7 15 8 N 50
07.07.2020 07:00:00 6,0 -2,0 15 8 N 10
07.07.2020 06:00:00 6,0 0,0 15 8 N 10
07.07.2020 05:00:00 6,0 -0,1 13 7 N 20
07.07.2020 04:00:00 - - - - - -
07.07.2020 03:00:00 - - - - - -
07.07.2020 02:00:00 8,0 2,9 15 8 NNO 15
07.07.2020 01:00:00 - - - - - -
07.07.2020 00:00:00 - - - - - -
06.07.2020 23:00:00 10,6 8,7 21 11 NO 12
06.07.2020 22:00:00 - - - - - -
06.07.2020 21:00:00 - - - - - -
06.07.2020 20:00:00 14,4 12,8 15 8 SE 3,0
06.07.2020 19:00:00 15,0 11,0 28 15 SSE 10
06.07.2020 18:00:00 17,0 10,0 28 15 SSE 10
06.07.2020 17:00:00 18,8 11,6 26 14 SE 25
06.07.2020 16:00:00 18,0 12,0 24 13 SE 10
06.07.2020 15:00:00 18,0 12,0 29 16 SE 10
06.07.2020 14:00:00 18,0 11,5 28 15 SE 35
06.07.2020 13:00:00 19,0 11,0 26 14 SE 10
06.07.2020 12:00:00 18,0 11,0 24 13 SE 10
06.07.2020 11:00:00 17,8 10,9 16 9 ESE 35
06.07.2020 10:00:00 17,0 10,0 16 9 ESE 10
06.07.2020 09:00:00 15,0 7,0 8 4 ESE 10
06.07.2020 08:00:00 11,2 4,9 4 2 NO 35
06.07.2020 07:00:00 12,0 8,0 5 3 N 10
06.07.2020 06:00:00 11,0 8,0 8 4 N 10
06.07.2020 05:00:00 11,4 7,7 4 2 NNO 10
06.07.2020 04:00:00 - - - - - -
06.07.2020 03:00:00 - - - - - -
06.07.2020 02:00:00 11,8 8,8 5 3 O 10
06.07.2020 01:00:00 - - - - - -
06.07.2020 00:00:00 - - - - - -
05.07.2020 23:00:00 12,2 10,4 8 4 N 10
05.07.2020 22:00:00 - - - - - -
05.07.2020 21:00:00 - - - - - -
05.07.2020 20:00:00 15,0 12,0 15 8 SE 20
05.07.2020 19:00:00 17,0 13,0 21 11 SE 10
05.07.2020 18:00:00 15,0 12,0 22 12 SE 10
05.07.2020 17:00:00 15,6 11,0 22 12 SE 35
05.07.2020 16:00:00 17,0 10,0 21 11 SE 10
05.07.2020 15:00:00 17,0 9,0 18 10 SE 10
05.07.2020 14:00:00 16,8 7,2 16 9 SE 50
05.07.2020 13:00:00 16,0 8,0 15 8 SE 10
05.07.2020 12:00:00 15,0 8,0 15 8 ESE 10
05.07.2020 11:00:00 14,4 7,2 13 7 ESE 50
05.07.2020 10:00:00 13,0 1,0 5 3 O 10
05.07.2020 09:00:00 12,0 -2,0 9 5 O 10
05.07.2020 08:00:00 11,6 -0,5 5 3 N 50
05.07.2020 07:00:00 9,0 3,0 9 5 NNE 10
05.07.2020 06:00:00 9,0 5,0 9 5 N 10
05.07.2020 05:00:00 9,4 6,8 9 5 N 12
05.07.2020 04:00:00 - - - - - -
05.07.2020 03:00:00 - - - - - -
05.07.2020 02:00:00 9,8 7,6 8 4 NO 10
05.07.2020 01:00:00 - - - - - -
05.07.2020 00:00:00 - - - - - -
04.07.2020 23:00:00 10,0 8,3 11 6 NO 10
04.07.2020 22:00:00 - - - - - -
04.07.2020 21:00:00 - - - - - -
04.07.2020 20:00:00 14,4 11,5 16 9 SE 25
04.07.2020 19:00:00 14,0 11,0 18 10 ESE 10
04.07.2020 18:00:00 13,0 11,0 18 10 SE 10
04.07.2020 17:00:00 13,8 9,8 21 11 SE 25
04.07.2020 16:00:00 14,0 10,0 18 10 SE 10
04.07.2020 15:00:00 12,0 8,0 18 10 SE 10
04.07.2020 14:00:00 14,0 9,4 16 9 ESE 20
04.07.2020 13:00:00 13,0 7,0 13 7 ESE 10
04.07.2020 12:00:00 12,0 7,0 13 7 O 10
04.07.2020 11:00:00 10,6 8,2 9 5 O 20
04.07.2020 10:00:00 9,0 7,0 9 5 O 10
04.07.2020 09:00:00 9,0 8,0 9 5 ONO 10
04.07.2020 08:00:00 8,4 6,7 5 3 ESE 0,1
04.07.2020 07:00:00 8,0 7,0 2 1 O 10
04.07.2020 06:00:00 8,0 6,0 4 2 N 10
04.07.2020 05:00:00 8,2 6,3 2 1 S 10
04.07.2020 04:00:00 - - - - - -
04.07.2020 03:00:00 - - - - - -
04.07.2020 02:00:00 8,0 6,5 5 3 N 10
04.07.2020 01:00:00 - - - - - -
04.07.2020 00:00:00 - - - - - -
03.07.2020 23:00:00 8,2 7,0 8 4 ESE 10
03.07.2020 22:00:00 - - - - - -
03.07.2020 21:00:00 - - - - - -
03.07.2020 20:00:00 9,4 8,5 13 7 OSO 20
03.07.2020 19:00:00 9,0 8,0 5 3 E 10
03.07.2020 18:00:00 9,0 8,0 18 10 ESE 10
03.07.2020 17:00:00 9,6 7,2 11 6 SE 10
03.07.2020 16:00:00 10,0 8,0 8 4 OSO 10
03.07.2020 15:00:00 11,0 8,0 22 12 SSE 10
03.07.2020 14:00:00 12,6 7,3 18 10 SE 40
03.07.2020 13:00:00 14,0 7,0 5 3 - 10
03.07.2020 12:00:00 12,0 7,0 9 5 SSE 10
03.07.2020 11:00:00 11,4 7,3 8 4 SSE 50
03.07.2020 10:00:00 - - - - - -
03.07.2020 09:00:00 9,0 5,0 13 7 O 10
03.07.2020 08:00:00 7,8 5,6 8 4 NNO 8
03.07.2020 07:00:00 - - - - - -

tt = Temperatura
td = dewpoint
ff = velocità del vento
dd = direzione del vento
vv = visibility

Stazioni seguenti

WeatherPro
AMSI
MeteoEarth